Location: Bischwind
(50.1182°N, 10.6725°E)
Time: 15:08:16
(UTC+00:00)

Daily predictions for brighter satellites

Satellite Brightness Start Highest point End
(mag) Time Altitude Azimuth Time Altitude Azimuth Time Altitude Azimuth
BREEZE-M DEB (TANK) 4.1 19:07:06 10° SW 19:11:31 70° SE 19:28:55 10° ENE
Cosmos 1697 Rocket 2.7 19:17:51 10° NNW 19:23:31 82° ENE 19:29:08 10° SSE
Okean O Rocket 2.2 19:21:08 10° SE 19:25:07 39° ENE 19:29:08 10° N
ATLAS 3B R/B 3.1 19:17:43 10° NW 19:25:37 83° NE 19:33:03 10° SE
SL-16 R/B 4.2 19:22:55 10° N 19:26:43 18° NNE 19:30:30 10° ENE
ERS-1 Rocket 3.0 19:22:04 10° SSE 19:27:04 89° SW 19:32:08 10° NNW
Cosmos 1741 Rocket 4.5 19:22:02 10° NNW 19:27:13 49° ENE 19:32:21 10° SE
Cosmos 1452 Rocket 4.5 19:23:49 10° SSE 19:28:09 27° E 19:32:29 10° NE
Helios 1A Rocket 2.2 19:26:25 10° NNE 19:29:35 69° ESE 19:32:43 10° S
Cosmos 332 Rocket 4.1 19:25:04 10° NNW 19:29:50 68° WSW 19:34:32 10° SSE
Cosmos 1867 3.6 19:24:32 10° SSW 19:29:57 80° SE 19:35:27 10° NE
USA 186 2.6 19:28:30 10° SE 19:30:46 25° ENE 19:33:05 10° N
Meteor 1-31 Rocket 3.7 19:30:00 10° S 19:33:19 41° W 19:36:39 10° NNW
Cosmos 1331 Rocket 4.4 19:32:23 10° S 19:37:19 44° ESE 19:42:16 10° NE
Okean-O 2.9 19:33:40 10° SE 19:37:53 50° ENE 19:42:09 10° N
Cosmos 968 Rocket 3.5 19:32:56 10° NNW 19:38:13 89° ENE 19:43:28 10° SSE
Cosmos 2333 Rocket 4.1 19:35:30 10° N 19:39:31 19° NE 19:43:33 10° E
Cosmos 1892 Rocket 4.1 19:38:17 10° N 19:42:25 41° ENE 19:46:26 10° SE
Cosmos 2016 Rocket 4.5 19:37:04 10° SSE 19:42:52 42° E 19:48:38 10° NNE
CZ-4B R/B 4.5 19:39:23 10° ESE 19:43:27 29° ENE 19:47:34 10° N
Meteor 2-1 Rocket 4.2 19:38:24 10° S 19:44:04 70° E 19:49:38 10° NNE
Cosmos 2173 Rocket 4.0 19:39:03 10° S 19:45:07 69° E 19:51:18 10° NNE
Cosmos 1455 Rocket 3.7 19:43:49 10° SSE 19:47:53 37° E 19:51:57 10° NNE
SL-08 R/B 3.3 19:46:32 10° NNE 19:51:24 68° ESE 19:56:09 10° S
Cosmos 1980 Rocket 2.4 19:45:55 10° NNW 19:51:37 66° ENE 19:56:48 12° SE
Okean 1 Rocket 3.0 19:49:29 10° S 19:53:51 81° E 19:58:17 10° NNE
Meteor 2-3 Rocket 4.0 19:51:18 10° NNW 19:56:54 72° W 20:02:31 10° S
Cosmos 2084 4.4 19:54:09 10° WSW 19:58:12 51° NW 20:02:15 10° NE
SPOT 3 Rocket 4.0 19:53:56 12° SE 19:58:26 46° ENE 20:03:21 10° N
CZ-4 R/B 3.3 19:56:42 10° SSW 19:59:41 24° W 20:02:41 10° NW
CZ-4B R/B 3.3 19:58:30 15° SE 20:00:49 34° ENE 20:03:55 10° N
Cosmos 1850 Rocket 4.0 19:56:19 10° NNW 20:01:31 90° WSW 20:06:17 12° SSE
Cosmos 1782 3.3 19:59:06 13° SSE 20:01:44 33° E 20:04:57 10° NNE
CZ-4B R/B 4.0 20:04:01 10° S 20:09:31 51° W 20:15:02 10° NNW
Cosmos 2084 Rocket 4.2 20:07:09 10° NW 20:11:11 44° NE 20:14:32 14° ESE
Cosmos 1833 Rocket 3.2 20:05:38 10° SW 20:11:12 63° WNW 20:16:48 10° NNE
Cosmos 1110 Rocket 4.0 20:06:08 10° SSW 20:11:25 85° ESE 20:16:46 10° NNE
Cosmos 1802 Rocket 4.0 20:05:24 10° S 20:11:36 76° E 20:17:45 10° NNE
Terra 3.0 20:09:25 10° SSW 20:13:47 39° W 20:18:12 10° NNW
IRS-1C Rocket 4.5 20:10:56 16° SE 20:15:03 52° ENE 20:20:11 10° N
Gbstr 26 Del rocket 3.2 20:10:41 10° WNW 20:15:48 68° SSW 20:18:53 18° SE
Sich 1 Rocket 3.9 20:12:23 10° SSW 20:16:44 69° WNW 20:21:06 10° N
Cosmos 2360 Rocket 4.1 20:12:58 10° N 20:17:09 20° NE 20:21:19 10° E
YAOGAN 11 4.1 20:16:37 10° NNE 20:21:02 86° ESE 20:25:28 10° SSW
CZ-2C R/B 2.9 20:23:39 24° ESE 20:24:38 32° ENE 20:27:11 10° N
Cosmos 1743 2.4 20:23:34 10° NNW 20:26:34 64° W 20:28:34 19° S
Meteor 1-27 4.2 20:25:29 10° S 20:31:10 84° E 20:36:48 10° NNE
Cosmos 44 Rocket 3.3 20:26:47 10° SSW 20:31:50 76° SE 20:37:02 10° NE
ISS -3.2 20:29:57 10° SW 20:33:01 35° SSE 20:35:05 17° E
Cosmos 2219 Rocket 4.3 20:30:42 10° N 20:34:37 19° NE 20:38:32 10° E
Meteor 2-12 Rocket 4.4 20:29:42 10° N 20:35:49 88° W 20:40:49 16° S
Ariane Rocket 3.0 20:32:21 20° SSE 20:35:52 73° ENE 20:40:57 10° NNW
ATLAS 2AS CENTAUR R/B 3.8 20:34:17 10° WSW 20:40:58 48° NW 20:47:33 10° NE
Spot 2 Rocket 4.5 20:37:17 10° SSW 20:42:01 42° W 20:46:47 10° NNW
Cosmos 2369 3.7 20:36:56 10° NNW 20:42:42 83° ENE 20:46:24 23° SSE
BREEZE-M DEB (TANK) 4.4 20:40:07 10° W 20:43:18 34° SSW 20:47:10 20° SSE
SL-4 R/B 3.8 20:40:49 10° W 20:43:21 17° SW 20:44:44 14° SSW
Cosmos 2322 Rocket 3.6 20:40:09 10° NNW 20:45:01 29° NE 20:49:16 13° E
Cosmos 2082 Rocket 2.2 20:41:33 10° SSW 20:47:09 61° ESE 20:52:48 10° NE
Cosmos 1437 Rocket 3.6 20:47:59 25° ESE 20:48:23 26° E 20:51:24 10° NE
USA 305 2.4 20:45:26 10° WNW 20:49:32 89° N 20:51:08 32° ESE
Cosmos 909 Rocket 4.2 20:43:52 10° SSW 20:49:59 51° ESE 20:56:10 10° NE
Cosmos 2151 3.3 20:47:10 10° N 20:51:13 49° ENE 20:52:53 30° SE
USA 234 4.2 20:49:23 10° ENE 20:54:30 24° SE 20:55:31 23° SE
Cosmos 2233 Rocket 4.1 20:51:33 10° SSW 20:57:46 80° W 21:03:58 10° N
Cosmos 1626 Rocket 3.5 20:53:36 10° N 20:57:58 80° E 21:00:05 30° SSE
Cosmos 1607 3.8 20:52:12 10° SSW 20:58:19 72° SE 21:04:34 10° NE
Cosmos 2228 3.2 20:55:36 14° SSW 20:59:02 65° WNW 21:03:09 10° N
USA 186 4.1 20:58:40 10° SW 21:00:12 14° W 21:01:47 10° NW
Okean O Rocket 3.4 20:57:51 10° SSW 21:01:26 25° W 21:05:01 10° NW
Tsikada Rocket 4.3 20:58:00 10° NNW 21:04:06 63° W 21:08:51 17° S
Cosmos 2278 4.4 20:58:53 10° NNW 21:04:26 47° NE 21:07:47 22° ESE
Okean 1-7 Rocket 4.5 21:04:11 10° N 21:08:18 36° ENE 21:09:50 28° ESE
CZ-4C R/B 2.4 21:04:58 10° WSW 21:09:16 60° NW 21:14:52 10° NE
Cosmos 1992 Rocket 4.0 21:05:58 22° S 21:09:17 64° ESE 21:14:27 10° NNE
Cosmos 1452 Rocket 4.3 21:04:48 10° SW 21:09:53 51° WNW 21:15:01 10° NNE
COSMOS 2406 3.5 21:07:29 26° SSE 21:10:17 46° ESE 21:15:46 10° NE
Meteor 1-20 Rocket 4.1 21:05:18 10° N 21:10:52 83° ENE 21:13:52 29° SSE
SL-16 R/B 2.4 21:06:19 10° NNW 21:11:58 63° ENE 21:14:58 28° SE
Helios 1A 3.7 21:09:13 10° NNE 21:12:44 30° E 21:13:02 30° ESE
Nadezhda 4 Rocket 4.3 21:09:19 10° N 21:15:17 51° ENE 21:18:18 28° SE
ATLAS 3B R/B 4.2 21:09:16 10° NW 21:15:39 29° WSW 21:20:47 14° SSW
Cosmos 1805 3.4 21:14:39 10° N 21:17:47 40° ENE 21:18:02 39° E
CZ-4B R/B 4.2 21:19:07 21° SSW 21:21:56 42° W 21:26:29 10° NNW
Cosmos 2333 Rocket 2.3 21:19:12 10° NNW 21:24:53 69° ENE 21:27:39 31° SE
Cosmos 2098 Rocket 3.5 21:25:32 36° SSE 21:27:19 54° E 21:31:50 10° NNE
Cosmos 1726 Rocket 4.5 21:29:27 28° E 21:29:41 28° E 21:33:10 10° NNE
Meteor 1-25 Rocket 4.2 21:24:10 10° NNW 21:29:55 89° ENE 21:32:32 34° SSE
Cosmos 1076 Rocket 4.3 21:30:03 10° N 21:34:04 38° ENE 21:35:03 33° ESE
Cosmos 1980 Rocket 3.9 21:30:38 10° NW 21:35:07 24° WSW 21:38:33 14° SSW
Cosmos 1544 Rocket 3.9 21:35:33 27° SSW 21:37:45 62° WNW 21:42:04 10° N
NOSS 3-3 (A) 3.6 21:34:42 10° SW 21:39:55 86° SE 21:46:15 10° NE
Cosmos 1933 3.5 21:44:19 41° SW 21:45:25 63° WNW 21:49:13 10° N
DNEPR-1 R/B 4.4 21:40:50 10° NW 21:46:10 73° NE 21:49:21 30° SE
Okean 1 3.5 21:49:59 45° E 21:49:59 45° E 21:53:14 10° NNE
Cosmos 2084 Rocket 4.3 21:46:02 10° WNW 21:49:49 33° WSW 21:50:19 32° SW
Helios 1B rocket 1.9 21:51:51 70° ESE 21:52:03 73° ENE 21:55:33 10° N
Cosmos 1464 Rocket 3.9 21:53:23 33° S 21:56:19 87° E 22:02:31 10° N
Cosmos 2360 Rocket 2.2 21:56:22 10° NNW 22:02:06 77° ENE 22:04:14 40° SE
Meteor 2-10 4.3 21:59:06 10° NNW 22:04:49 77° W 22:06:57 40° S
ALOS 2 3.2 22:06:32 39° ESE 22:07:31 46° ENE 22:11:43 10° N
NOSS 3-3 (C) 3.8 22:02:52 12° SW 22:07:53 78° NW 22:14:21 10° NE
ARIANE 5 R/B 2.9 22:07:11 46° ESE 22:08:07 57° ENE 22:12:29 10° N
Cosmos 1825 Rocket 3.5 22:04:04 10° NNW 22:08:23 74° W 22:09:11 56° SSW
ISS -2.4 22:06:19 10° W 22:08:14 31° W 22:08:14 31° W
Cosmos 1953 Rocket 3.5 22:05:43 10° N 22:10:06 70° ENE 22:10:47 58° SE
Cosmos 2058 Rocket 3.7 22:11:46 38° E 22:12:01 38° E 22:16:04 10° NNE
USA 305 4.4 22:11:25 10° W 22:13:10 18° WSW 22:13:10 18° WSW
BREEZE-M R/B 4.2 22:08:51 10° W 22:16:59 89° NNE 22:22:43 10° E
Cosmos 1092 Rocket 4.0 22:12:25 10° N 22:18:35 73° E 22:20:51 41° SSE
CZ-2C R/B 3.6 22:15:10 10° NNE 22:19:34 63° E 22:20:05 57° SE
Cosmos 2219 Rocket 2.3 22:13:59 10° NNW 22:19:39 68° ENE 22:21:48 38° SE
DEBRIS 4.4 22:15:50 10° W 22:20:15 85° S 22:38:24 10° E
NOSS 3-4 (A) 3.7 22:15:47 10° NW 22:22:27 80° SW 22:26:00 35° SSE
Cosmos 1437 Rocket 4.4 22:21:47 20° W 22:23:02 24° WNW 22:26:02 10° NNW
NOSS 3-4 (C) 3.7 22:16:23 10° NW 22:23:04 81° SW 22:26:40 35° SSE
Cosmos 540 Rocket 3.7 22:23:21 45° SE 22:24:02 49° ESE 22:28:59 10° NNE
PSLV R/B 4.1 22:21:41 10° NNE 22:25:41 40° E 22:25:44 40° E
Cosmos 1461 2.6 22:26:32 71° NE 22:26:32 71° NE 22:29:53 10° NE
Cosmos 2322 Rocket 2.3 22:23:54 10° NNW 22:29:31 66° WSW 22:31:03 47° S
Cosmos 2034 Rocket 4.0 22:27:37 37° SSW 22:30:22 81° W 22:36:46 10° N
Cosmos 2082 Rocket 3.9 22:26:34 10° WSW 22:31:37 31° NW 22:36:40 10° NNE
Cosmos 220 Rocket 4.3 22:32:36 44° WSW 22:33:30 56° WNW 22:37:33 10° NNE
Cosmos 1707 3.6 22:38:21 32° NNE 22:38:21 32° NNE 22:40:03 10° NNE
USA 234 3.1 22:31:44 10° ENE 22:38:17 71° SE 22:42:49 22° SW
Cosmos 1536 2.6 22:34:36 10° N 22:38:06 71° NE 22:38:06 71° NE
ACS3 Solar Sail 3.7 22:38:19 10° NE 22:41:50 16° E 22:44:07 13° ESE
COSMOS 2428 3.7 22:37:43 10° NNW 22:43:07 40° NE 22:46:33 20° ESE
Cosmos 2237 Rocket 4.2 22:41:42 10° NNW 22:46:17 24° NE 22:50:50 10° E
Cosmos 1763 Rocket 3.4 22:45:39 53° S 22:46:56 82° ESE 22:52:15 10° NNE
Cosmos-2242 2.8 22:47:28 74° SW 22:47:45 80° W 22:51:55 10° N
Cosmos 1503 Rocket 4.2 22:43:03 10° NNW 22:48:07 53° WSW 22:49:02 46° SW
CZ-2C R/B 3.8 22:45:06 10° NNE 22:50:34 47° E 22:51:56 40° SE
Cosmos 990 Rocket 4.0 22:46:24 10° NNW 22:51:32 69° WSW 22:52:30 55° SSW
COSMOS 2406 4.5 22:49:26 10° WSW 22:54:42 38° NW 23:00:04 10° NNE
ARGOS Delta rocket 3.9 22:49:57 10° NNE 22:54:57 85° ESE 22:56:07 55° S
SL-16 R/B 3.5 22:51:04 10° NW 22:55:37 25° WSW 22:56:47 24° WSW
USA 290 3.2 22:56:48 46° N 22:56:48 46° N 22:59:15 10° NNE
Cosmos 1354 Rocket 4.1 22:53:11 10° NNW 22:58:23 62° WSW 22:59:19 53° SSW
CZ-4C R/B 4.4 22:54:30 10° WNW 22:58:41 25° NNW 23:03:51 10° NE
Cosmos 1634 Rocket 3.9 22:57:50 44° SSW 22:59:57 84° W 23:06:12 10° N
Cosmos 1766 4.1 22:58:59 10° NNW 23:01:17 34° WNW 23:01:17 34° WNW
Cosmos 2279 Rocket 4.0 23:01:48 45° S 23:03:49 76° E 23:10:06 10° NNE
Cosmos 1470 3.0 23:01:31 10° N 23:04:12 53° NNE 23:04:12 53° NNE
SeaSat 1 2.7 23:03:53 39° ESE 23:05:35 64° NE 23:10:27 10° NNW
Meteor 2-6 Rocket 4.3 23:06:35 48° S 23:08:20 82° E 23:14:21 10° NNE
Cosmos 2333 Rocket 3.6 23:04:17 10° NW 23:08:39 23° WSW 23:09:39 22° WSW
Cosmos 2221 2.7 23:09:57 54° E 23:10:01 54° E 23:14:06 10° NNE
Meteor 2-2 Rocket 4.4 23:10:21 42° SW 23:12:12 66° WNW 23:17:56 10° N
Cosmos 1842 3.7 23:13:51 47° N 23:13:51 47° N 23:16:13 10° N
Cosmos 841 Rocket 4.2 23:12:28 36° ESE 23:13:07 37° ESE 23:17:54 10° NE
CZ-2C R/B 2.6 23:16:22 48° SSE 23:17:52 78° ENE 23:23:08 10° NNW
BREEZE-M DEB (TANK) 3.4 23:11:30 10° W 23:18:29 68° S 23:23:35 10° ESE
Meteor 1-19 Rocket 4.4 23:17:12 46° SSE 23:18:42 62° E 23:24:29 10° NNE
Cosmos 1833 4.3 23:17:41 40° SW 23:19:48 73° WNW 23:25:27 10° NNE
NOSS 0 Rocket 4.3 23:18:18 10° NNW 23:24:27 61° NE 23:28:04 25° SE
KORONAS-FOTON 4.5 23:25:14 40° NW 23:25:14 40° NW 23:28:07 10° N
Cosmos 1975 2.7 23:24:56 10° NNW 23:28:17 68° NW 23:28:17 68° NW
Aureole 1 Rocket 3.9 23:25:18 10° NNW 23:30:33 58° WSW 23:32:03 46° SSW
Cosmos 2266 Rocket 3.9 23:26:19 10° N 23:32:24 82° E 23:34:28 44° SSE
Cosmos 2322 3.6 23:27:39 10° NNW 23:33:23 90° NE 23:35:16 45° SSE
Cosmos 1812 Rocket 3.4 23:34:01 68° SE 23:34:25 74° E 23:38:50 10° NNE
Cosmos 2297 Rocket 3.4 23:33:58 25° SE 23:35:08 28° ESE 23:39:50 10° NE
Cosmos 44 3.4 23:31:35 10° NW 23:36:59 73° SW 23:38:08 54° S
Cosmos 1271 Rocket 3.0 23:38:07 51° NW 23:38:07 51° NW 23:41:05 10° N
Cosmos 372 Rocket 4.0 23:37:52 10° NNW 23:42:53 56° WSW 23:43:34 52° SW
RESURS DK-1 2.2 23:39:59 10° NNW 23:43:59 78° ENE 23:44:13 74° E
ALOS 2 4.2 23:43:55 22° W 23:44:04 22° W 23:47:33 10° NW
Cosmos 1937 Rocket 3.4 23:39:05 10° NNW 23:44:16 86° ENE 23:45:41 49° SSE
ARIANE 5 R/B 4.4 23:44:33 19° W 23:44:46 19° W 23:47:56 10° NW
Cosmos 2360 Rocket 3.7 23:41:23 10° NW 23:45:26 20° W 23:45:57 20° WSW
Lacrosse 4 Rocket 3.9 23:46:25 10° ESE 23:46:25 10° ESE 23:46:37 10° E
ISS-0.423:50:53E23:50:53E23:41:23W
Meteor 1-11 Rocket 3.6 23:42:08 10° NNW 23:47:53 82° W 23:49:31 48° S
GP-B 3.1 23:44:26 10° N 23:48:46 64° W 23:49:14 59° WSW
Meteor 2-20 4.4 23:48:56 43° S 23:51:02 78° E 23:57:09 10° NNE
Cosmos 468 Rocket 4.3 23:51:08 39° WSW 23:52:52 59° WNW 23:58:06 10° NNE
